Year,Month,Day,Hour,Minute,Value (Times are PST for temperature in C)
2015,06,21,00,00,12.20
2015,06,21,00,01,12.10
2015,06,21,00,02,12.10
2015,06,21,00,03,12.10
2015,06,21,00,04,12.10
2015,06,21,00,05,12.00
2015,06,21,00,06,12.00
2015,06,21,00,07,11.90
2015,06,21,00,08,11.90
2015,06,21,00,09,11.90
2015,06,21,00,10,11.80
2015,06,21,00,11,11.80
2015,06,21,00,12,11.80
2015,06,21,00,13,11.80
2015,06,21,00,14,11.80
2015,06,21,00,15,11.70
2015,06,21,00,16,11.70
2015,06,21,00,17,11.70
2015,06,21,00,18,11.70
2015,06,21,00,19,11.70
2015,06,21,00,20,11.70
2015,06,21,00,21,11.60
2015,06,21,00,22,11.60
2015,06,21,00,23,11.60
2015,06,21,00,24,11.60
2015,06,21,00,25,11.50
2015,06,21,00,26,11.50
2015,06,21,00,27,11.50
2015,06,21,00,28,11.40
2015,06,21,00,29,11.40
2015,06,21,00,30,11.40
2015,06,21,00,31,11.40
2015,06,21,00,32,11.40
2015,06,21,00,33,11.40
2015,06,21,00,34,11.30
2015,06,21,00,35,11.30
2015,06,21,00,36,11.30
2015,06,21,00,37,11.30
2015,06,21,00,38,11.30
2015,06,21,00,39,11.30
2015,06,21,00,40,11.20
2015,06,21,00,41,11.20
2015,06,21,00,42,11.20
2015,06,21,00,43,11.20
2015,06,21,00,44,11.20
2015,06,21,00,45,11.20
2015,06,21,00,46,11.20
2015,06,21,00,47,11.10
2015,06,21,00,48,11.10
2015,06,21,00,49,11.20
2015,06,21,00,50,11.20
2015,06,21,00,51,11.20
2015,06,21,00,52,11.20
2015,06,21,00,53,11.20
2015,06,21,00,54,11.20
2015,06,21,00,55,11.30
2015,06,21,00,56,11.30
2015,06,21,00,57,11.30
2015,06,21,00,58,11.30
2015,06,21,00,59,11.30
2015,06,21,01,00,11.30
2015,06,21,01,01,11.30
2015,06,21,01,02,11.30
2015,06,21,01,03,11.30
2015,06,21,01,04,11.20
2015,06,21,01,05,11.20
2015,06,21,01,06,11.20
2015,06,21,01,07,11.20
2015,06,21,01,08,11.20
2015,06,21,01,09,11.20
2015,06,21,01,10,11.20
2015,06,21,01,11,11.30
2015,06,21,01,12,11.30
2015,06,21,01,13,11.30
2015,06,21,01,14,11.30
2015,06,21,01,15,11.30
2015,06,21,01,16,11.20
2015,06,21,01,17,11.20
2015,06,21,01,18,11.20
2015,06,21,01,19,11.20
2015,06,21,01,20,11.10
2015,06,21,01,21,11.10
2015,06,21,01,22,11.10
2015,06,21,01,23,11.10
2015,06,21,01,24,11.10
2015,06,21,01,25,11.00
2015,06,21,01,26,11.00
2015,06,21,01,27,11.00
2015,06,21,01,28,11.00
2015,06,21,01,29,11.00
2015,06,21,01,30,11.00
2015,06,21,01,31,11.00
2015,06,21,01,32,11.00
2015,06,21,01,33,11.10
2015,06,21,01,34,11.10
2015,06,21,01,35,11.10
2015,06,21,01,36,11.10
2015,06,21,01,37,11.10
2015,06,21,01,38,11.00
2015,06,21,01,39,11.00
2015,06,21,01,40,11.00
2015,06,21,01,41,11.00
2015,06,21,01,42,11.00
2015,06,21,01,43,10.90
2015,06,21,01,44,10.90
2015,06,21,01,45,10.90
2015,06,21,01,46,10.90
2015,06,21,01,47,10.90
2015,06,21,01,48,10.90
2015,06,21,01,49,10.90
2015,06,21,01,50,10.90
2015,06,21,01,51,10.80
2015,06,21,01,52,10.80
2015,06,21,01,53,10.80
2015,06,21,01,54,10.80
2015,06,21,01,55,10.80
2015,06,21,01,56,10.80
2015,06,21,01,57,10.80
2015,06,21,01,58,10.80
2015,06,21,01,59,10.80
2015,06,21,02,00,10.80
2015,06,21,02,01,10.80
2015,06,21,02,02,10.80
2015,06,21,02,03,10.80
2015,06,21,02,04,10.80
2015,06,21,02,05,10.80
2015,06,21,02,06,10.80
2015,06,21,02,07,10.80
2015,06,21,02,08,10.80
2015,06,21,02,09,10.80
2015,06,21,02,10,10.80
2015,06,21,02,11,10.80
2015,06,21,02,12,10.80
2015,06,21,02,13,10.80
2015,06,21,02,14,10.80
2015,06,21,02,15,10.80
2015,06,21,02,16,10.70
2015,06,21,02,17,10.70
2015,06,21,02,18,10.80
2015,06,21,02,19,10.70
2015,06,21,02,20,10.80
2015,06,21,02,21,10.80
2015,06,21,02,22,10.80
2015,06,21,02,23,10.80
2015,06,21,02,24,10.70
2015,06,21,02,25,10.80
2015,06,21,02,26,10.80
2015,06,21,02,27,10.80
2015,06,21,02,28,10.80
2015,06,21,02,29,10.70
2015,06,21,02,30,10.80
2015,06,21,02,31,10.80
2015,06,21,02,32,10.70
2015,06,21,02,33,10.70
2015,06,21,02,34,10.70
2015,06,21,02,35,10.70
2015,06,21,02,36,10.70
2015,06,21,02,37,10.70
2015,06,21,02,38,10.70
2015,06,21,02,39,10.70
2015,06,21,02,40,10.60
2015,06,21,02,41,10.60
2015,06,21,02,42,10.60
2015,06,21,02,43,10.60
2015,06,21,02,44,10.60
2015,06,21,02,45,10.50
2015,06,21,02,46,10.50
2015,06,21,02,47,10.50
2015,06,21,02,48,10.50
2015,06,21,02,49,10.50
2015,06,21,02,50,10.50
2015,06,21,02,51,10.50
2015,06,21,02,52,10.50
2015,06,21,02,53,10.50
2015,06,21,02,54,10.50
2015,06,21,02,55,10.50
2015,06,21,02,56,10.50
2015,06,21,02,57,10.50
2015,06,21,02,58,10.50
2015,06,21,02,59,10.50
2015,06,21,03,00,10.50
2015,06,21,03,01,10.50
2015,06,21,03,02,10.50
2015,06,21,03,03,10.50
2015,06,21,03,04,10.50
2015,06,21,03,05,10.50
2015,06,21,03,06,10.50
2015,06,21,03,07,10.50
2015,06,21,03,08,10.50
2015,06,21,03,09,10.50
2015,06,21,03,10,10.50
2015,06,21,03,11,10.50
2015,06,21,03,12,10.40
2015,06,21,03,13,10.40
2015,06,21,03,14,10.40
2015,06,21,03,15,10.30
2015,06,21,03,16,10.30
2015,06,21,03,17,10.30
2015,06,21,03,18,10.30
2015,06,21,03,19,10.20
2015,06,21,03,20,10.20
2015,06,21,03,21,10.20
2015,06,21,03,22,10.20
2015,06,21,03,23,10.20
2015,06,21,03,24,10.20
2015,06,21,03,25,10.20
2015,06,21,03,26,10.20
2015,06,21,03,27,10.20
2015,06,21,03,28,10.20
2015,06,21,03,29,10.10
2015,06,21,03,30,10.10
2015,06,21,03,31,10.10
2015,06,21,03,32,10.10
2015,06,21,03,33,10.10
2015,06,21,03,34,10.10
2015,06,21,03,35,10.10
2015,06,21,03,36,10.10
2015,06,21,03,37,10.10
2015,06,21,03,38,10.10
2015,06,21,03,39,10.10
2015,06,21,03,40,10.00
2015,06,21,03,41,10.00
2015,06,21,03,42,10.00
2015,06,21,03,43,9.90
2015,06,21,03,44,9.90
2015,06,21,03,45,9.90
2015,06,21,03,46,9.90
2015,06,21,03,47,9.90
2015,06,21,03,48,9.80
2015,06,21,03,49,9.80
2015,06,21,03,50,9.80
2015,06,21,03,51,9.80
2015,06,21,03,52,9.80
2015,06,21,03,53,9.80
2015,06,21,03,54,9.80
2015,06,21,03,55,9.80
2015,06,21,03,56,9.80
2015,06,21,03,57,9.80
2015,06,21,03,58,9.80
2015,06,21,03,59,9.70
2015,06,21,04,00,9.70
2015,06,21,04,01,9.70
2015,06,21,04,02,9.70
2015,06,21,04,03,9.70
2015,06,21,04,04,9.70
2015,06,21,04,05,9.70
2015,06,21,04,06,9.70
2015,06,21,04,07,9.70
2015,06,21,04,08,9.70
2015,06,21,04,09,9.70
2015,06,21,04,10,9.70
2015,06,21,04,11,9.70
2015,06,21,04,12,9.70
2015,06,21,04,13,9.70
2015,06,21,04,14,9.70
2015,06,21,04,15,9.70
2015,06,21,04,16,9.80
2015,06,21,04,17,9.80
2015,06,21,04,18,9.80
2015,06,21,04,19,9.80
2015,06,21,04,20,9.90
2015,06,21,04,21,9.90
2015,06,21,04,22,9.90
2015,06,21,04,23,9.90
2015,06,21,04,24,9.90
2015,06,21,04,25,10.00
2015,06,21,04,26,10.00
2015,06,21,04,27,10.00
2015,06,21,04,28,10.00
2015,06,21,04,29,10.10
2015,06,21,04,30,10.10
2015,06,21,04,31,10.10
2015,06,21,04,32,10.10
2015,06,21,04,33,10.10
2015,06,21,04,34,10.10
2015,06,21,04,35,10.10
2015,06,21,04,36,10.10
2015,06,21,04,37,10.20
2015,06,21,04,38,10.20
2015,06,21,04,39,10.20
2015,06,21,04,40,10.30
2015,06,21,04,41,10.30
2015,06,21,04,42,10.30
2015,06,21,04,43,10.40
2015,06,21,04,44,10.40
2015,06,21,04,45,10.40
2015,06,21,04,46,10.50
2015,06,21,04,47,10.50
2015,06,21,04,48,10.50
2015,06,21,04,49,10.50
2015,06,21,04,50,10.50
2015,06,21,04,51,10.60
2015,06,21,04,52,10.50
2015,06,21,04,53,10.50
2015,06,21,04,54,10.40
2015,06,21,04,55,10.40
2015,06,21,04,56,10.40
2015,06,21,04,57,10.30
2015,06,21,04,58,10.30
2015,06,21,04,59,10.30
2015,06,21,05,00,10.20
2015,06,21,05,01,10.20
2015,06,21,05,02,10.20
2015,06,21,05,03,10.20
2015,06,21,05,04,10.20
2015,06,21,05,05,10.20
2015,06,21,05,06,10.10
2015,06,21,05,07,10.10
2015,06,21,05,08,10.10
2015,06,21,05,09,10.10
2015,06,21,05,10,10.10
2015,06,21,05,11,10.10
2015,06,21,05,12,10.00
2015,06,21,05,13,10.00
2015,06,21,05,14,10.00
2015,06,21,05,15,10.00
2015,06,21,05,16,10.00
2015,06,21,05,17,10.00
2015,06,21,05,18,10.00
2015,06,21,05,19,10.00
2015,06,21,05,20,10.00
2015,06,21,05,21,10.00
2015,06,21,05,22,10.00
2015,06,21,05,23,9.90
2015,06,21,05,24,9.90
2015,06,21,05,25,9.90
2015,06,21,05,26,9.90
2015,06,21,05,27,9.90
2015,06,21,05,28,9.90
2015,06,21,05,29,9.90
2015,06,21,05,30,9.90
2015,06,21,05,31,9.90
2015,06,21,05,32,9.90
2015,06,21,05,33,9.90
2015,06,21,05,34,9.90
2015,06,21,05,35,9.90
2015,06,21,05,36,9.90
2015,06,21,05,37,9.90
2015,06,21,05,38,9.90
2015,06,21,05,39,9.90
2015,06,21,05,40,9.80
2015,06,21,05,41,9.90
2015,06,21,05,42,10.00
2015,06,21,05,43,10.00
2015,06,21,05,44,10.00
2015,06,21,05,45,10.10
2015,06,21,05,46,10.10
2015,06,21,05,47,10.10
2015,06,21,05,48,10.10
2015,06,21,05,49,10.10
2015,06,21,05,50,10.10
2015,06,21,05,51,10.10
2015,06,21,05,52,10.10
2015,06,21,05,53,10.10
2015,06,21,05,54,10.20
2015,06,21,05,55,10.20
2015,06,21,05,56,10.20
2015,06,21,05,57,10.30
2015,06,21,05,58,10.30
2015,06,21,05,59,10.50
2015,06,21,06,00,10.50
2015,06,21,06,01,10.60
2015,06,21,06,02,10.70
2015,06,21,06,03,10.70
2015,06,21,06,04,10.80
2015,06,21,06,05,10.80
2015,06,21,06,06,10.90
2015,06,21,06,07,11.00
2015,06,21,06,08,11.00
2015,06,21,06,09,11.10
2015,06,21,06,10,11.10
2015,06,21,06,11,11.20
2015,06,21,06,12,11.30
2015,06,21,06,13,11.30
2015,06,21,06,14,11.40
2015,06,21,06,15,11.50
2015,06,21,06,16,11.60
2015,06,21,06,17,11.70
2015,06,21,06,18,11.80
2015,06,21,06,19,11.80
2015,06,21,06,20,11.90
2015,06,21,06,21,11.90
2015,06,21,06,22,12.00
2015,06,21,06,23,12.10
2015,06,21,06,24,12.10
2015,06,21,06,25,12.20
2015,06,21,06,26,12.30
2015,06,21,06,27,12.40
2015,06,21,06,28,12.40
2015,06,21,06,29,12.50
2015,06,21,06,30,12.50
2015,06,21,06,31,12.60
2015,06,21,06,32,12.70
2015,06,21,06,33,12.80
2015,06,21,06,34,12.90
2015,06,21,06,35,13.00
2015,06,21,06,36,13.10
2015,06,21,06,37,13.20
2015,06,21,06,38,13.20
2015,06,21,06,39,13.30
2015,06,21,06,40,13.30
2015,06,21,06,41,13.40
2015,06,21,06,42,13.50
2015,06,21,06,43,13.50
2015,06,21,06,44,13.60
2015,06,21,06,45,13.60
2015,06,21,06,46,13.60
2015,06,21,06,47,13.60
2015,06,21,06,48,13.60
2015,06,21,06,49,13.60
2015,06,21,06,50,13.60
2015,06,21,06,51,13.70
2015,06,21,06,52,13.70
2015,06,21,06,53,13.80
2015,06,21,06,54,13.80
2015,06,21,06,55,13.90
2015,06,21,06,56,14.00
2015,06,21,06,57,14.00
2015,06,21,06,58,14.10
2015,06,21,06,59,14.20
2015,06,21,07,00,14.30
2015,06,21,07,01,14.40
2015,06,21,07,02,14.50
2015,06,21,07,03,14.60
2015,06,21,07,04,14.70
2015,06,21,07,05,14.80
2015,06,21,07,06,14.80
2015,06,21,07,07,14.90
2015,06,21,07,08,14.90
2015,06,21,07,09,15.00
2015,06,21,07,10,15.10
2015,06,21,07,11,15.10
2015,06,21,07,12,15.20
2015,06,21,07,13,15.20
2015,06,21,07,14,15.30
2015,06,21,07,15,15.30
2015,06,21,07,16,15.40
2015,06,21,07,17,15.40
2015,06,21,07,18,15.40
2015,06,21,07,19,15.50
2015,06,21,07,20,15.50
2015,06,21,07,21,15.60
2015,06,21,07,22,15.60
2015,06,21,07,23,15.60
2015,06,21,07,24,15.60
2015,06,21,07,25,15.60
2015,06,21,07,26,15.60
2015,06,21,07,27,15.60
2015,06,21,07,28,15.60
2015,06,21,07,29,15.70
2015,06,21,07,30,15.70
2015,06,21,07,31,15.70
2015,06,21,07,32,15.80
2015,06,21,07,33,15.80
2015,06,21,07,34,15.90
2015,06,21,07,35,15.90
2015,06,21,07,36,15.90
2015,06,21,07,37,15.90
2015,06,21,07,38,16.10
2015,06,21,07,39,16.20
2015,06,21,07,40,16.30
2015,06,21,07,41,16.30
2015,06,21,07,42,16.30
2015,06,21,07,43,16.40
2015,06,21,07,44,16.40
2015,06,21,07,45,16.50
2015,06,21,07,46,16.60
2015,06,21,07,47,16.70
2015,06,21,07,48,16.80
2015,06,21,07,49,16.90
2015,06,21,07,50,17.00
2015,06,21,07,51,17.10
2015,06,21,07,52,17.20
2015,06,21,07,53,17.20
2015,06,21,07,54,17.20
2015,06,21,07,55,17.30
2015,06,21,07,56,17.20
2015,06,21,07,57,17.20
2015,06,21,07,58,17.20
2015,06,21,07,59,17.20
2015,06,21,08,00,17.20
2015,06,21,08,01,17.20
2015,06,21,08,02,17.20
2015,06,21,08,03,17.30
2015,06,21,08,04,17.30
2015,06,21,08,05,17.30
2015,06,21,08,06,17.30
2015,06,21,08,07,17.30
2015,06,21,08,08,17.30
2015,06,21,08,09,17.30
2015,06,21,08,10,17.30
2015,06,21,08,11,17.30
2015,06,21,08,12,17.30
2015,06,21,08,13,17.30
2015,06,21,08,14,17.40
2015,06,21,08,15,17.40
2015,06,21,08,16,17.40
2015,06,21,08,17,17.40
2015,06,21,08,18,17.40
2015,06,21,08,19,17.40
2015,06,21,08,20,17.40
2015,06,21,08,21,17.50
2015,06,21,08,22,17.50
2015,06,21,08,23,17.50
2015,06,21,08,24,17.50
2015,06,21,08,25,17.50
2015,06,21,08,26,17.50
2015,06,21,08,27,17.60
2015,06,21,08,28,17.60
2015,06,21,08,29,17.70
2015,06,21,08,30,17.80
2015,06,21,08,31,17.90
2015,06,21,08,32,18.00
2015,06,21,08,33,18.00
2015,06,21,08,34,18.10
2015,06,21,08,35,18.20
2015,06,21,08,36,18.20
2015,06,21,08,37,18.30
2015,06,21,08,38,18.20
2015,06,21,08,39,18.20
2015,06,21,08,40,18.20
2015,06,21,08,41,18.10
2015,06,21,08,42,18.10
2015,06,21,08,43,18.10
2015,06,21,08,44,18.00
2015,06,21,08,45,18.00
2015,06,21,08,46,18.00
2015,06,21,08,47,18.00
2015,06,21,08,48,18.00
2015,06,21,08,49,18.00
2015,06,21,08,50,18.10
2015,06,21,08,51,18.10
2015,06,21,08,52,18.10
2015,06,21,08,53,18.10
2015,06,21,08,54,18.10
2015,06,21,08,55,18.10
2015,06,21,08,56,18.20
2015,06,21,08,57,18.40
2015,06,21,08,58,18.50
2015,06,21,08,59,18.50
2015,06,21,09,00,18.60
2015,06,21,09,01,18.70
2015,06,21,09,02,18.70
2015,06,21,09,03,18.70
2015,06,21,09,04,18.70
2015,06,21,09,05,18.80
2015,06,21,09,06,18.80
2015,06,21,09,07,18.80
2015,06,21,09,08,18.90
2015,06,21,09,09,18.90
2015,06,21,09,10,19.00
2015,06,21,09,11,19.10
2015,06,21,09,12,19.00
2015,06,21,09,13,18.90
2015,06,21,09,14,18.90
2015,06,21,09,15,18.90
2015,06,21,09,16,18.90
2015,06,21,09,17,18.90
2015,06,21,09,18,18.90
2015,06,21,09,19,18.90
2015,06,21,09,20,18.90
2015,06,21,09,21,19.00
2015,06,21,09,22,19.10
2015,06,21,09,23,19.20
2015,06,21,09,24,19.30
2015,06,21,09,25,19.50
2015,06,21,09,26,19.60
2015,06,21,09,27,19.70
2015,06,21,09,28,19.70
2015,06,21,09,29,19.80
2015,06,21,09,30,19.80
2015,06,21,09,31,19.90
2015,06,21,09,32,19.80
2015,06,21,09,33,19.80
2015,06,21,09,34,19.70
2015,06,21,09,35,19.60
2015,06,21,09,36,19.60
2015,06,21,09,37,19.60
2015,06,21,09,38,19.60
2015,06,21,09,39,19.60
2015,06,21,09,40,19.60
2015,06,21,09,41,19.60
2015,06,21,09,42,19.50
2015,06,21,09,43,19.50
2015,06,21,09,44,19.60
2015,06,21,09,45,19.60
2015,06,21,09,46,19.70
2015,06,21,09,47,19.60
2015,06,21,09,48,19.60
2015,06,21,09,49,19.70
2015,06,21,09,50,19.70
2015,06,21,09,51,19.60
2015,06,21,09,52,19.60
2015,06,21,09,53,19.60
2015,06,21,09,54,19.70
2015,06,21,09,55,19.70
2015,06,21,09,56,19.70
2015,06,21,09,57,19.70
2015,06,21,09,58,19.70
2015,06,21,09,59,19.70
2015,06,21,10,00,19.80
2015,06,21,10,01,19.80
2015,06,21,10,02,19.90
2015,06,21,10,03,19.80
2015,06,21,10,04,19.80
2015,06,21,10,05,19.80
2015,06,21,10,06,19.80
2015,06,21,10,07,19.90
2015,06,21,10,08,19.90
2015,06,21,10,09,19.90
2015,06,21,10,10,19.90
2015,06,21,10,11,20.00
2015,06,21,10,12,20.00
2015,06,21,10,13,19.90
2015,06,21,10,14,20.00
2015,06,21,10,15,20.00
2015,06,21,10,16,20.10
2015,06,21,10,17,20.10
2015,06,21,10,18,20.10
2015,06,21,10,19,20.10
2015,06,21,10,20,20.10
2015,06,21,10,21,20.00
2015,06,21,10,22,20.00
2015,06,21,10,23,20.10
2015,06,21,10,24,20.10
2015,06,21,10,25,20.20
2015,06,21,10,26,20.20
2015,06,21,10,27,20.20
2015,06,21,10,28,20.30
2015,06,21,10,29,20.40
2015,06,21,10,30,20.50
2015,06,21,10,31,20.60
2015,06,21,10,32,20.60
2015,06,21,10,33,20.60
2015,06,21,10,34,20.60
2015,06,21,10,35,20.70
2015,06,21,10,36,20.70
2015,06,21,10,37,20.70
2015,06,21,10,38,20.70
2015,06,21,10,39,20.70
2015,06,21,10,40,20.80
2015,06,21,10,41,20.80
2015,06,21,10,42,20.80
2015,06,21,10,43,20.80
2015,06,21,10,44,20.70
2015,06,21,10,45,20.60
2015,06,21,10,46,20.70
2015,06,21,10,47,20.80
2015,06,21,10,48,20.90
2015,06,21,10,49,20.90
2015,06,21,10,50,20.90
2015,06,21,10,51,21.00
2015,06,21,10,52,21.10
2015,06,21,10,53,21.10
2015,06,21,10,54,21.20
2015,06,21,10,55,21.00
2015,06,21,10,56,20.90
2015,06,21,10,57,21.00
2015,06,21,10,58,21.10
2015,06,21,10,59,21.20
2015,06,21,11,00,21.30
2015,06,21,11,01,21.40
2015,06,21,11,02,21.40
2015,06,21,11,03,21.50
2015,06,21,11,04,21.50
2015,06,21,11,05,21.60
2015,06,21,11,06,21.60
2015,06,21,11,07,21.60
2015,06,21,11,08,21.50
2015,06,21,11,09,21.40
2015,06,21,11,10,21.30
2015,06,21,11,11,21.30
2015,06,21,11,12,21.20
2015,06,21,11,13,21.20
2015,06,21,11,14,21.30
2015,06,21,11,15,21.30
2015,06,21,11,16,21.30
2015,06,21,11,17,21.30
2015,06,21,11,18,21.30
2015,06,21,11,19,21.30
2015,06,21,11,20,21.30
2015,06,21,11,21,21.30
2015,06,21,11,22,21.30
2015,06,21,11,23,21.20
2015,06,21,11,24,21.20
2015,06,21,11,25,21.20
2015,06,21,11,26,21.30
2015,06,21,11,27,21.40
2015,06,21,11,28,21.50
2015,06,21,11,29,21.60
2015,06,21,11,30,21.60
2015,06,21,11,31,21.60
2015,06,21,11,32,21.60
2015,06,21,11,33,21.60
2015,06,21,11,34,21.70
2015,06,21,11,35,21.80
2015,06,21,11,36,21.90
2015,06,21,11,37,22.00
2015,06,21,11,38,22.10
2015,06,21,11,39,22.10
2015,06,21,11,40,22.00
2015,06,21,11,41,21.90
2015,06,21,11,42,21.80
2015,06,21,11,43,21.70
2015,06,21,11,44,21.60
2015,06,21,11,45,21.60
2015,06,21,11,46,21.60
2015,06,21,11,47,21.70
2015,06,21,11,48,21.80
2015,06,21,11,49,21.80
2015,06,21,11,50,21.70
2015,06,21,11,51,21.70
2015,06,21,11,52,21.80
2015,06,21,11,53,21.90
2015,06,21,11,54,22.10
2015,06,21,11,55,22.20
2015,06,21,11,56,22.20
2015,06,21,11,57,22.20
2015,06,21,11,58,22.20
2015,06,21,11,59,22.10
2015,06,21,12,00,22.20
2015,06,21,12,01,22.40
2015,06,21,12,02,22.50
2015,06,21,12,03,22.60
2015,06,21,12,04,22.70
2015,06,21,12,05,22.60
2015,06,21,12,06,22.70
2015,06,21,12,07,22.70
2015,06,21,12,08,22.70
2015,06,21,12,09,22.60
2015,06,21,12,10,22.60
2015,06,21,12,11,22.60
2015,06,21,12,12,22.70
2015,06,21,12,13,22.70
2015,06,21,12,14,22.50
2015,06,21,12,15,22.40
2015,06,21,12,16,22.40
2015,06,21,12,17,22.40
2015,06,21,12,18,22.50
2015,06,21,12,19,22.60
2015,06,21,12,20,22.70
2015,06,21,12,21,22.80
2015,06,21,12,22,22.80
2015,06,21,12,23,22.90
2015,06,21,12,24,23.00
2015,06,21,12,25,23.10
2015,06,21,12,26,23.10
2015,06,21,12,27,23.10
2015,06,21,12,28,23.10
2015,06,21,12,29,23.00
2015,06,21,12,30,23.00
2015,06,21,12,31,22.90
2015,06,21,12,32,22.90
2015,06,21,12,33,23.00
2015,06,21,12,34,23.00
2015,06,21,12,35,22.90
2015,06,21,12,36,23.00
2015,06,21,12,37,23.00
2015,06,21,12,38,23.10
2015,06,21,12,39,23.20
2015,06,21,12,40,23.30
2015,06,21,12,41,23.40
2015,06,21,12,42,23.40
2015,06,21,12,43,23.40
2015,06,21,12,44,23.40
2015,06,21,12,45,23.20
2015,06,21,12,46,23.00
2015,06,21,12,47,22.90
2015,06,21,12,48,22.90
2015,06,21,12,49,23.00
2015,06,21,12,50,23.10
2015,06,21,12,51,23.20
2015,06,21,12,52,23.30
2015,06,21,12,53,23.40
2015,06,21,12,54,23.50
2015,06,21,12,55,23.70
2015,06,21,12,56,23.80
2015,06,21,12,57,23.70
2015,06,21,12,58,23.60
2015,06,21,12,59,23.40
2015,06,21,13,00,23.30
2015,06,21,13,01,23.30
2015,06,21,13,02,23.40
2015,06,21,13,03,23.50
2015,06,21,13,04,23.70
2015,06,21,13,05,23.70
2015,06,21,13,06,23.50
2015,06,21,13,07,23.40
2015,06,21,13,08,23.40
2015,06,21,13,09,23.40
2015,06,21,13,10,23.50
2015,06,21,13,11,23.60
2015,06,21,13,12,23.50
2015,06,21,13,13,23.40
2015,06,21,13,14,23.40
2015,06,21,13,15,23.40
2015,06,21,13,16,23.40
2015,06,21,13,17,23.50
2015,06,21,13,18,23.40
2015,06,21,13,19,23.40
2015,06,21,13,20,23.40
2015,06,21,13,21,23.40
2015,06,21,13,22,23.50
2015,06,21,13,23,23.40
2015,06,21,13,24,23.30
2015,06,21,13,25,23.30
2015,06,21,13,26,23.20
2015,06,21,13,27,23.10
2015,06,21,13,28,23.10
2015,06,21,13,29,23.10
2015,06,21,13,30,23.20
2015,06,21,13,31,23.30
2015,06,21,13,32,23.40
2015,06,21,13,33,23.50
2015,06,21,13,34,23.60
2015,06,21,13,35,23.60
2015,06,21,13,36,23.80
2015,06,21,13,37,23.90
2015,06,21,13,38,23.90
2015,06,21,13,39,23.90
2015,06,21,13,40,23.90
2015,06,21,13,41,23.80
2015,06,21,13,42,23.80
2015,06,21,13,43,23.70
2015,06,21,13,44,23.60
2015,06,21,13,45,23.50
2015,06,21,13,46,23.50
2015,06,21,13,47,23.60
2015,06,21,13,48,23.60
2015,06,21,13,49,23.60
2015,06,21,13,50,23.60
2015,06,21,13,51,23.50
2015,06,21,13,52,23.40
2015,06,21,13,53,23.30
2015,06,21,13,54,23.40
2015,06,21,13,55,23.50
2015,06,21,13,56,23.50
2015,06,21,13,57,23.60
2015,06,21,13,58,23.70
2015,06,21,13,59,23.60
2015,06,21,14,00,23.60
2015,06,21,14,01,23.60
2015,06,21,14,02,23.50
2015,06,21,14,03,23.40
2015,06,21,14,04,23.50
2015,06,21,14,05,23.50
2015,06,21,14,06,23.50
2015,06,21,14,07,23.50
2015,06,21,14,08,23.40
2015,06,21,14,09,23.40
2015,06,21,14,10,23.40
2015,06,21,14,11,23.40
2015,06,21,14,12,23.40
2015,06,21,14,13,23.30
2015,06,21,14,14,23.20
2015,06,21,14,15,23.30
2015,06,21,14,16,23.50
2015,06,21,14,17,23.60
2015,06,21,14,18,23.70
2015,06,21,14,19,23.70
2015,06,21,14,20,23.60
2015,06,21,14,21,23.50
2015,06,21,14,22,23.50
2015,06,21,14,23,23.50
2015,06,21,14,24,23.60
2015,06,21,14,25,23.60
2015,06,21,14,26,23.60
2015,06,21,14,27,23.60
2015,06,21,14,28,23.50
2015,06,21,14,29,23.50
2015,06,21,14,30,23.60
2015,06,21,14,31,23.60
2015,06,21,14,32,23.60
2015,06,21,14,33,23.60
2015,06,21,14,34,23.60
2015,06,21,14,35,23.50
2015,06,21,14,36,23.50
2015,06,21,14,37,23.50
2015,06,21,14,38,23.30
2015,06,21,14,39,23.30
2015,06,21,14,40,23.30
2015,06,21,14,41,23.50
2015,06,21,14,42,23.70
2015,06,21,14,43,23.90
2015,06,21,14,44,24.00
2015,06,21,14,45,24.00
2015,06,21,14,46,23.90
2015,06,21,14,47,23.80
2015,06,21,14,48,23.80
2015,06,21,14,49,23.80
2015,06,21,14,50,23.90
2015,06,21,14,51,23.90
2015,06,21,14,52,23.90
2015,06,21,14,53,23.90
2015,06,21,14,54,23.90
2015,06,21,14,55,24.00
2015,06,21,14,56,24.00
2015,06,21,14,57,24.00
2015,06,21,14,58,23.90
2015,06,21,14,59,23.90
2015,06,21,15,00,24.00
2015,06,21,15,01,24.10
2015,06,21,15,02,24.10
2015,06,21,15,03,24.10
2015,06,21,15,04,24.10
2015,06,21,15,05,24.10
2015,06,21,15,06,24.00
2015,06,21,15,07,24.00
2015,06,21,15,08,24.10
2015,06,21,15,09,24.20
2015,06,21,15,10,24.30
2015,06,21,15,11,24.30
2015,06,21,15,12,24.30
2015,06,21,15,13,24.30
2015,06,21,15,14,24.20
2015,06,21,15,15,24.10
2015,06,21,15,16,24.10
2015,06,21,15,17,24.10
2015,06,21,15,18,24.30
2015,06,21,15,19,24.50
2015,06,21,15,20,24.70
2015,06,21,15,21,24.90
2015,06,21,15,22,25.00
2015,06,21,15,23,24.90
2015,06,21,15,24,24.90
2015,06,21,15,25,24.90
2015,06,21,15,26,24.90
2015,06,21,15,27,24.90
2015,06,21,15,28,24.90
2015,06,21,15,29,25.00
2015,06,21,15,30,24.90
2015,06,21,15,31,24.80
2015,06,21,15,32,24.70
2015,06,21,15,33,24.70
2015,06,21,15,34,24.60
2015,06,21,15,35,24.70
2015,06,21,15,36,24.70
2015,06,21,15,37,24.70
2015,06,21,15,38,24.60
2015,06,21,15,39,24.50
2015,06,21,15,40,24.40
2015,06,21,15,41,24.40
2015,06,21,15,42,24.30
2015,06,21,15,43,24.30
2015,06,21,15,44,24.30
2015,06,21,15,45,24.20
2015,06,21,15,46,24.20
2015,06,21,15,47,24.20
2015,06,21,15,48,24.20
2015,06,21,15,49,24.20
2015,06,21,15,50,24.30
2015,06,21,15,51,24.30
2015,06,21,15,52,24.40
2015,06,21,15,53,24.40
2015,06,21,15,54,24.50
2015,06,21,15,55,24.60
2015,06,21,15,56,24.70
2015,06,21,15,57,24.80
2015,06,21,15,58,24.80
2015,06,21,15,59,24.70
2015,06,21,16,00,24.60
2015,06,21,16,01,24.50
2015,06,21,16,02,24.40
2015,06,21,16,03,24.40
2015,06,21,16,04,24.40
2015,06,21,16,05,24.40
2015,06,21,16,06,24.50
2015,06,21,16,07,24.60
2015,06,21,16,08,24.60
2015,06,21,16,09,24.80
2015,06,21,16,10,25.00
2015,06,21,16,11,25.00
2015,06,21,16,12,25.00
2015,06,21,16,13,24.90
2015,06,21,16,14,24.80
2015,06,21,16,15,24.70
2015,06,21,16,16,24.70
2015,06,21,16,17,24.60
2015,06,21,16,18,24.40
2015,06,21,16,19,24.40
2015,06,21,16,20,24.40
2015,06,21,16,21,24.40
2015,06,21,16,22,24.40
2015,06,21,16,23,24.50
2015,06,21,16,24,24.60
2015,06,21,16,25,24.50
2015,06,21,16,26,24.50
2015,06,21,16,27,24.40
2015,06,21,16,28,24.30
2015,06,21,16,29,24.20
2015,06,21,16,30,24.20
2015,06,21,16,31,24.30
2015,06,21,16,32,24.30
2015,06,21,16,33,24.40
2015,06,21,16,34,24.40
2015,06,21,16,35,24.30
2015,06,21,16,36,24.40
2015,06,21,16,37,24.50
2015,06,21,16,38,24.60
2015,06,21,16,39,24.50
2015,06,21,16,40,24.30
2015,06,21,16,41,24.30
2015,06,21,16,42,24.20
2015,06,21,16,43,24.20
2015,06,21,16,44,24.20
2015,06,21,16,45,24.30
2015,06,21,16,46,24.30
2015,06,21,16,47,24.40
2015,06,21,16,48,24.50
2015,06,21,16,49,24.50
2015,06,21,16,50,24.60
2015,06,21,16,51,24.60
2015,06,21,16,52,24.50
2015,06,21,16,53,24.50
2015,06,21,16,54,24.40
2015,06,21,16,55,24.40
2015,06,21,16,56,24.40
2015,06,21,16,57,24.40
2015,06,21,16,58,24.40
2015,06,21,16,59,24.40
2015,06,21,17,00,24.40
2015,06,21,17,01,24.40
2015,06,21,17,02,24.50
2015,06,21,17,03,24.50
2015,06,21,17,04,24.50
2015,06,21,17,05,24.60
2015,06,21,17,06,24.60
2015,06,21,17,07,24.50
2015,06,21,17,08,24.40
2015,06,21,17,09,24.30
2015,06,21,17,10,24.30
2015,06,21,17,11,24.30
2015,06,21,17,12,24.30
2015,06,21,17,13,24.30
2015,06,21,17,14,24.30
2015,06,21,17,15,24.30
2015,06,21,17,16,24.30
2015,06,21,17,17,24.30
2015,06,21,17,18,24.20
2015,06,21,17,19,24.20
2015,06,21,17,20,24.10
2015,06,21,17,21,24.20
2015,06,21,17,22,24.20